Location: Krasnoyarskiy Pitomnik
(51.1333°N, 71.6167°E)
Time: 08:31:59
(UTC+00:00)

Cosmos 1844 Rocket - Pass Details

Date: 22 October 2021
Orbit: 826 x 843 km, 71.0° (Epoch: 06 December)

Event Time Altitude Azimuth Distance (km) Brightness Sun altitude
Rises 12:48:04 0° 331° (NNW) 3,379 6.1 -7.2°
Reaches altitude 10° 12:50:50 10° 343° (NNW) 2,441 5.2 -7.6°
Maximum altitude 12:55:41 29° 43° (NE) 1,475 3.6 -8.4°
Drops below altitude 10° 13:00:30 10° 103° (ESE) 2,430 4.5 -9.1°
Enters shadow 13:00:41 - 104° (ESE) 2,488 4.6 -9.2°
